Regional Weather Roundup
Issued by NWS Wakefield, VA

Home | Current Version | Previous Version | Graphics & Text | Print | Product List | Glossary On
Versions: 1 2 3 4 5 6 7 8 9 10 11 12 13 14 15 16 17 18 19 20 21 22 23 24 25 26 27 28 29 30 31 32 33 34 35 36 37 38 39 40 41 42 43 44 45 46 47 48 49 50
000
ASUS41 KAKQ 260613
RWRAKQ

REGIONAL WEATHER ROUNDUP
NATIONAL WEATHER SERVICE WAKEFIELD VA
200 AM EDT THU MAR 26 2015

Note: "fair" indicates few or no clouds below 12,000 feet with no
significant weather and/or obstructions to visibility. * = Denotes
station may not report precipitation (e.g., rain,snow,etc.),
thunder or fog.

VAZ042-051-052>054-056-260700-
NORTHERN VIRGINIA

CITY           SKY/WX    TMP DP  RH WIND       PRES   REMARKS
WASH NATIONAL  CLOUDY    50  39  66 S8        30.10F
DULLES         MOCLDY    46  37  71 SW6       30.08F
FORT BELVOIR   CLOUDY    48  40  73 CALM      30.10F
QUANTICO       CLOUDY    49  41  74 SW6       30.11F
FREDERICKSBRG* MOCLDY    50  38  63 CALM      30.10F
STAFFORD*      CLOUDY    48  36  61 CALM      30.14F
WARRENTON      CLOUDY    48  44  85 CALM      30.08F
CULPEPER*      CLOUDY    46  39  76 CALM      30.09F
MANASSAS*      CLOUDY    52  39  62 S3        30.09F
LEESBURG*      FAIR      41  37  87 CALM      30.08F
WINCHESTER     FAIR      46  39  76 CALM      30.05S
FRONT ROYAL*   FAIR      54  48  82 S5        30.03F
LURAY*         CLOUDY    54  50  87 SW6       30.06F
$$

VAZ048-049-060>072-079>083-260700-
CENTRAL AND SOUTH CENTRAL VIRGINIA

CITY           SKY/WX    TMP DP  RH WIND       PRES   REMARKS
RICHMOND       MOCLDY    49  41  74 CALM      30.11F
CHESTERFIELD*  FAIR      48  34  57 CALM      30.12F
PETERSBURG*    CLOUDY    52  42  71 CALM      30.12F
HANOVER        FAIR      44  39  82 CALM      30.13F
TAPPAHANNOCK*  FAIR      48  37  64 CALM      30.12F
QUINTON*       CLOUDY    48  41  76 CALM      30.11F
CHARLOTTSVILLE CLOUDY    49  39  68 CALM      30.09F
GORDONSVILLE*  CLOUDY    47  39  73 CALM      30.09F
ORANGE*        CLOUDY    48  41  76 CALM      30.11S
LOUISA*        CLOUDY    48  39  71 CALM      30.09F
BUMPASS*       MOCLDY    47  38  73 CALM      30.11F
FARMVILLE*     CLOUDY    50  41  70 CALM      30.11S
CREWE*         CLOUDY    46  43  90 CALM      30.11F
FORT PICKETT*  CLOUDY    49  44  83 CALM      30.11F
CHASE CITY*    CLOUDY    53  53 100 CALM      30.12S
CLARKSVILLE*   CLOUDY    52  46  82 CALM      30.11F
SOUTH HILL*    CLOUDY    50  47  91 CALM      30.17F
LAWRENCEVILLE* CLOUDY    51  48  90 SE3       30.11F
EMPORIA*       DRIZZLE   52  52 100 CALM      30.13F
$$

VAZ088>098-260700-
SOUTHEAST VIRGINIA

CITY           SKY/WX    TMP DP  RH WIND       PRES   REMARKS
NORFOLK        MOCLDY    63  56  78 S14G22    30.12F
VIRGINIA BEACH MOCLDY    65  57  75 S9        30.13F
NORFOLK NAVAL  FAIR      67  57  70 S7        30.14F
WEST POINT*    MOCLDY    52  47  84 CALM      30.13F
SALUDA*        CLOUDY    48  47  95 CALM      30.11F
NEWPORT NEWS   MOCLDY    64  56  75 S8        30.13F
LANGLEY AFB    FAIR      61  56  85 SW7       30.11F
FORT EUSTIS    CLOUDY    56  56 100 S3        30.10F
WILLIAMSBURG*  MOCLDY    55  54  94 S3        30.13F
HR EXEC AP*    FAIR      63  55  77 S8        30.14F
FRANKLIN*      CLOUDY    61  57  85 S6        30.12F
WAKEFIELD      LGT RAIN  54  50  86 CALM      30.12F
$$

VAZ020-022-025-037-045-260700-
WEST CENTRAL AND SOUTHWEST VIRGINIA

CITY           SKY/WX    TMP DP  RH WIND       PRES   REMARKS
STAUNTON*      CLOUDY    51  46  81 CALM      30.10F
WAYNESBORO*    MOCLDY    45  44  95 CALM      30.09S
HOT SPRINGS VA CLOUDY    51  51 100 SW14G25   30.08F
LYNCHBURG      CLOUDY    46  41  82 S3        30.13F
DANVILLE       CLOUDY    53  47  79 NE3       30.12F
SOUTH BOSTON*  CLOUDY    51  48  89 CALM      30.12F
MARTINSVILLE   CLOUDY    51  51 100 CALM      30.14F
ROANOKE        CLOUDY    49  41  74 CALM      30.13F
BLACKSBURG     CLOUDY    50  45  81 CALM      30.13F
DUBLIN*        CLOUDY    56  55  95 CALM      30.10F
MARION*        CLOUDY    56  51  81 NE6       30.10F
HILLSVILLE*    CLOUDY    52  52  99 S5        30.11F FOG
RICHLANDS*     FAIR      58  48  69 S5        30.05F
WISE*          FAIR      59  50  72 S13G18    30.04F
ABINGDON*      CLOUDY    59  52  78 E3        30.04F
$$

MDZ021>025-VAZ099-100-260700-
SOUTHERN MARYLAND AND THE DELMARVA PENINSULA

CITY           SKY/WX    TMP DP  RH WIND       PRES   REMARKS
PATUXENT RIVER FAIR      42  37  82 SE3       30.10F
BAY BRIDGE APT   N/A     43  41  93 S5        30.10F
LEONARDTOWN    FAIR      41  37  87 CALM      30.12F
DOVER          CLOUDY    43  43 100 CALM      30.10F
GEORGETOWN     CLOUDY    53  52  96 SW6       30.11F FOG
EASTON         FOG       44  44 100 CALM      30.14F VSB 1
CAMBRIDGE      FAIR      45  41  87 SE5       30.10F
SALISBURY      CLOUDY   N/A N/A N/A S5        30.11F FOG
OCEAN CITY     FAIR      51  49  92 S5        30.12F
WALLOPS ISLAND FAIR      50  49  96 S5        30.12F
ACCOMACK*      RAIN      57  52  82 S7        30.12F
$$

NCZ012>017-030>032-260700-
NORTH CENTRAL AND EASTERN NORTH CAROLINA

CITY           SKY/WX    TMP DP  RH WIND       PRES   REMARKS
ROANOKE RAPIDS LGT RAIN  55  55 100 CALM      30.13F
RALEIGH        CLOUDY    57  53  86 CALM      30.12F
ELIZABETH CITY FAIR      62  57  83 S7        30.15F
AHOSKIE*       CLOUDY    61  57  87 S6        30.13F
EDENTON*       CLOUDY    59  56  88 S6        30.15F
CURRITUCK*     FAIR      61  56  84 S3        30.16F
KILL DEVIL HLS FAIR      60  57  90 S6        30.16F
MANTEO         MOCLDY    58  56  91 S7        30.18F
CAPE HATTERAS  FAIR      63  56  78 S14       30.19F
TARBORO*       CLOUDY    65  59  82 S3        30.14F
GOLDSBORO      FAIR      64  64 100 SE3       30.10F
WASHINGTON     CLOUDY    63  58  85 SE7       30.15F
GREENVILLE     MOCLDY    63  59  88 S6        30.15F
NEW BERN       MOCLDY    67  61  81 SE9       30.15F
WILMINGTON     CLOUDY    67  64  90 SE7       30.12F
$$

VAZ048-260700-
ELSEWHERE

CITY           SKY/WX    TMP DP  RH WIND       PRES   REMARKS
HARRISBURG PA  FAIR      35  32  88 CALM      30.08F
BALTIMORE      MOCLDY    43  37  79 CALM      30.08F
ANNAPOLIS      CLOUDY    41  38  89 CALM      30.10F
ANDREWS AFB    CLOUDY    47  39  75 SW6       30.08F
PHILADELPHIA   CLOUDY    43  40  89 CALM      30.12F
HENDERSON NC   CLOUDY    54  47  79 SE5       30.12F HAZE
GREENSBORO     CLOUDY    56  53  90 CALM      30.09F
ROCKY MOUNT    CLOUDY    60  59  96 CALM      30.12F FOG
$$

VAZ100-260700-
MARINE

STATION/POSITION TIME  TEMP    WIND        PRES    WAVE   SWELL
                       AIR SEA DIR/SP/G            HT/PER HT/PER
                 (UTC) (F)     (DEG/KT/KT) (MB)    (FT/S) (FT/S)
BRANDYWINE LGT   0500   48 39  180/  5/  5 1020.2F
CAPE MAY NJ      0500   47 42  160/  2/  3 1020.0F
LEWES DE         0500   42 40  290/  5/  6 1020.3F
15NM E FENWICK I 0550   43 41              1019.6F   4/ 6
OCEAN-CITY-INLET 0500   49 40  220/ 13/ 16 1020.1F
WACHAPREAGUE VA  0500   52 47  220/  8/ 12 1020.7F
THOMAS POINT MD  0600                        N/A
COVE POINT MD    0500   42      80/  2/  3 1020.0F
SOLOMONS ISLAND  0500      41                N/A
BISHOPS HEAD MD  0506          190/  3/  4   N/A
PINEY POINT MD   0500           CALM  /  1   N/A
CAMBRIDGE MD     0500   45 42  110/  1/  2 1020.1F
LEWISETTA VA     0500   47 47              1019.9F
RAPPAHANNOCK LGT 0500          190/ 12/ 13 1020.8F
STINGRAY PT      0600   49 43  150/  4/  4   N/A     1
YORK RVR RNG VA  0500   55     210/  5/  5 1020.0F
YORKTOWN VA      0500   61 46  210/  5/  6 1020.2F
DOMINION TERM VA 0500   58     210/  7/  8 1020.7F
KIPTOPEKE VA     0500      49  170/  7/  7   N/A
CHES BAY BRIDGE  0500   62 44  180/ 15/ 19 1020.1F
CAPE HENRY VA    0500   64     180/ 12/ 16 1019.3F
CHESAPEAKE LGHT  0500   59     180/ 26/ 27 1020.4F
WILLOUBY STN VA  0500   62     190/ 14/ 16 1021.1F
S CRANEY ISL VA  0500          190/ 11/ 15 1020.5F
CAPE HENRY BUOY  0558      40                N/A     3/ 6
1ST LANDING BUOY 0600   57     200/ 12/ 14 1019.6F   2/ 4
OFFSHORE WE BUOY 0511      40                N/A     4/ 7   2/15
64NM E OF VA BCH 0550   59 55  180/ 12/ 14 1021.4F   4/ 7   3/ 7
DUCK PIER NC     0500   59 44  170/ 12/ 13 1021.1F
44056 DUCK FRF   0511      44                N/A     3/ 6
OREGON INLET NC  0500   58 53  150/  6/  8 1022.6F
HATTERAS NC      0500   64 57  170/  9/ 14 1023.0F
CAPE LOOKOUT NC  0600   64     150/ 14/ 15 1021.0F
$$


USA.gov is the U.S. government's official web portal to all federal, state and local government web resources and services.